Location: Wishram
(45.6596°N, 120.9636°W)
Time: 07:11:37
(UTC+00:00)

ISS - Visible Passes

Search period start: 21 May 2026 00:00
Search period end: 31 May 2026 00:00
Orbit: 414 x 424 km, 51.6° (Epoch: 20 May)

Date Brightness Start Highest point End Pass type
(mag) Time Alt. Az. Time Alt. Az. Time Alt. Az.
21 May -2.6 04:21:22 10° NW 04:24:33 39° NNE 04:27:43 10° E visible
21 May -3.4 05:58:10 10° WNW 06:01:20 49° SW 06:01:20 49° SW visible
22 May -3.8 05:10:23 10° WNW 05:13:44 78° SSW 05:15:19 29° SE visible
23 May -3.6 04:22:40 10° WNW 04:26:00 71° NNE 04:29:19 10° ESE visible
23 May -1.9 06:00:00 10° W 06:02:15 19° SW 06:02:15 19° SW visible
24 May -2.6 05:11:54 10° WNW 05:14:55 31° SW 05:16:16 22° S visible
25 May -3.2 04:24:00 10° WNW 04:27:14 49° SW 04:30:20 11° SE visible
26 May -1.3 05:14:20 10° WSW 05:15:49 12° SW 05:17:19 10° SSW visible
27 May -1.8 04:25:44 10° W 04:28:15 20° SW 04:30:46 10° S visible
